ROMMA est une association bénévole à but non lucratif. Votre soutien est indispensable : ADHERER à ROMMA ou FAIRE un DON

Chambon - (38, Isère)

Oisans (2460 m)   Longitude: 06° 10' 42" E   Latitude: 45° 01' 32" N Station partenaire n°803
 

Détail journalier du     <<     >>

Température Humidité Vent Dir Rafale Dir. rafale Neige 1 Neige 2
Heure (°C) (%) (km/h) (km/h) (cm) (cm)
01:00 -7.9981N3N0119
02:00 -7.6986N16NE0118
03:00 -7.49713NE24NE0119
04:00 -7.39712NE28NE0119
05:00 -7.39613NE31NE0119
06:00 -7.49612NE27NE0119
07:00 -6.99514NE26NE0119
08:00 -5.78114NE26NE0118
09:00 -6.0767NE23NE0118
10:00 -4.7522ENE20ENE0118
11:00 -2.1354NE17ENE0117
12:00 0.0265NE11SO0117
13:00 1.2235SO12SO0117
14:00 -0.6259SO16SO0117
15:00 0.0227SO17SO0117
16:00 -0.2213ENE11ENE0117
17:00 0.7208SO18SO0116
18:00 0.82411SSO25SSO0116
19:00 1.42112SSE30SSO0116
20:00 0.83015SSE39SSO0116
21:00 -0.74920S57S0116
22:00 0.54925SSE56S0116
23:00 0.64016SSE53SSE0115
minuit 1.03319SSE52SSE0116

Graphique du 30-11-2019

 

Serveur OMMA